Simultaneous Nadir Overpasses (SNOs) Predictions

Prediction of SNOs between AQUA and METOP-A Satellite Orbit:

Table of predicted SNOs for the next 14.0 days since TLE Epoch: 7/17/2020
Index Date (AQUA) Time (AQUA) Lat,Lon (AQUA) SZA (AQUA ) Date (METOP-A) Time (METOP-A) Lat,Lon (METOP-A) SZA (METOP-A ) Distance(km) Time Diff (sec)
1 07/19/2020 19:45:10 76.37,-128.67 56.11 07/19/2020 19:44:21 76.40,-128.63 56.15 3.02 49
2 07/19/2020 20:34:37 -76.44, 38.77 123.82 07/19/2020 20:35:02 -76.42, 38.77 123.84 1.81 25
3 07/22/2020 15:19:25 76.40, -62.30 56.69 07/22/2020 15:18:42 76.37, -62.37 56.68 3.22 43
4 07/22/2020 16:08:52 -76.46, 105.14 123.24 07/22/2020 16:09:22 -76.44, 105.20 123.26 2.35 30
5 07/25/2020 10:53:41 76.42, 4.05 57.32 07/25/2020 10:53:03 76.39, 4.04 57.29 3.74 38
6 07/25/2020 11:43:07 -76.43, 171.65 122.67 07/25/2020 11:43:43 -76.46, 171.62 122.65 3.04 36
7 07/28/2020 06:27:56 76.41, 70.54 57.93 07/28/2020 06:27:24 76.40, 70.45 57.95 2.42 32
8 07/28/2020 07:17:23 -76.46,-122.01 122.00 07/28/2020 07:18:04 -76.48,-121.96 121.99 2.31 41
9 07/31/2020 02:02:11 76.44, 136.87 58.65 07/31/2020 02:01:44 76.42, 136.85 58.64 2.34 27
10 07/31/2020 02:51:38 -76.50, -55.69 121.28 07/31/2020 02:52:24 -76.50, -55.54 121.30 3.87 46
